EW6762 Weather Reports


time (UTC)temp
F
wind
direction
speed
knots
gust
knots
rain 1hr
in
rain 24hr
in
rain mn
in
humidity
%
barometer
mb
20260901154313 95 271 2.6 7.8 0.00 0.00 0.00 62 1019.7
20260901153311 94 348 1.7 6.1 0.00 0.00 0.00 63 1019.8
20260901152325 94 249 3.5 7.0 0.00 0.00 0.00 64 1019.9
20260901151317 93 223 0.9 6.1 0.00 0.00 0.00 68 1020.0
20260901150327 92 284 2.6 6.1 0.00 0.00 0.00 68 1020.0
20260901145331 92 145 3.5 7.8 0.00 0.00 0.00 69 1020.2
20260901144313 91 185 3.5 5.2 0.00 0.00 0.00 70 1020.1
20260901143325 91 244 3.5 7.0 0.00 0.00 0.00 71 1020.2
20260901142322 90 215 3.5 7.0 0.00 0.00 0.00 73 1020.1
20260901141338 89 291 2.6 6.1 0.00 0.00 0.00 74 1020.0
20260901140324 89 240 2.6 6.1 0.00 0.00 0.00 77 1019.9
20260901135321 88 255 1.7 5.2 0.00 0.00 0.00 78 1019.9
20260901134311 87 252 2.6 6.1 0.00 0.00 0.00 78 1019.9
20260901133349 87 265 2.6 7.0 0.00 0.00 0.00 79 1020.0
20260901132317 86 252 2.6 7.8 0.00 0.00 0.00 81 1019.9
20260901131315 85 304 2.6 6.1 0.00 0.00 0.00 82 1020.0
20260901130325 84 294 3.5 7.8 0.00 0.00 0.00 84 1019.9
20260901125342 83 295 3.5 4.3 0.00 0.00 0.00 86 1019.9
20260901124312 82 279 2.6 7.8 0.00 0.00 0.00 87 1020.0
20260901123313 81 262 3.5 6.1 0.00 0.00 0.00 90 1019.9
20260901122311 81 267 2.6 7.0 0.00 0.00 0.00 91 1019.9
20260901121334 80 242 2.6 4.3 0.00 0.00 0.00 91 1019.8
20260901120309 80 240 1.7 4.3 0.00 0.00 0.00 92 1019.7
20260901115334 79 237 2.6 4.3 0.00 0.00 0.00 93 1019.6
20260901114310 79 239 2.6 4.3 0.00 0.00 0.00 93 1019.5
20260901113326 79 257 2.6 3.5 0.00 0.00 0.00 93 1019.4
20260901112328 79 229 1.7 2.6 0.00 0.00 0.00 93 1019.3
20260901111324 79 225 2.6 4.3 0.00 0.00 0.00 93 1019.2
20260901110348 79 251 2.6 4.3 0.00 0.00 0.00 93 1019.2
20260901105321 79 243 2.6 6.1 0.00 0.00 0.00 93 1019.1
20260901104323 79 261 2.6 5.2 0.00 0.00 0.00 93 1019.1
20260901103318 78 273 2.6 6.1 0.00 0.00 0.00 93 1019.1
20260901102323 78 242 2.6 4.3 0.00 0.00 0.00 93 1019.1
20260901101316 78 226 1.7 3.5 0.00 0.00 0.00 92 1019.1
20260901100309 78 204 1.7 4.3 0.00 0.00 0.00 92 1019.1
20260901095332 79 244 1.7 4.3 0.00 0.00 0.00 92 1019.0
20260901094334 79 262 1.7 3.5 0.00 0.00 0.00 92 1019.0
20260901093309 79 232 2.6 4.3 0.00 0.00 0.00 92 1019.0
20260901092325 79 244 1.7 7.0 0.00 0.00 0.00 92 1019.0
20260901091323 79 232 1.7 4.3 0.00 0.00 0.00 92 1019.1
20260901090322 79 209 1.7 3.5 0.00 0.00 0.00 91 1019.2
20260901085319 79 196 2.6 3.5 0.00 0.00 0.00 91 1019.3
20260901084320 79 223 1.7 4.3 0.00 0.00 0.00 91 1019.2
20260901083313 79 194 2.6 4.3 0.00 0.00 0.00 91 1019.2
20260901082334 79 213 1.7 5.2 0.00 0.00 0.00 91 1019.2
20260901081353 79 166 2.6 3.5 0.00 0.00 0.00 90 1019.2
20260901080327 79 212 1.7 3.5 0.00 0.00 0.00 90 1019.2
20260901075324 79 236 1.7 6.1 0.00 0.00 0.00 90 1019.3
20260901074342 79 249 2.6 4.3 0.00 0.00 0.00 90 1019.3
20260901073323 80 202 1.7 4.3 0.00 0.00 0.00 90 1019.3
20260901072317 80 146 1.7 4.3 0.00 0.00 0.00 90 1019.3
20260901071312 80 233 1.7 4.3 0.00 0.00 0.00 90 1019.4
20260901070314 80 243 1.7 4.3 0.00 0.00 0.00 90 1019.4
20260901065353 80 154 2.6 3.5 0.00 0.00 0.00 90 1019.5
20260901064327 80 200 2.6 4.3 0.00 0.00 0.00 90 1019.6
20260901063321 80 202 1.7 4.3 0.00 0.00 0.00 90 1019.7
20260901062324 80 95 2.6 3.5 0.00 0.00 0.00 90 1019.7
20260901061318 80 221 2.6 5.2 0.00 0.00 0.00 89 1019.8
20260901060313 80 185 1.7 4.3 0.00 0.00 0.00 89 1019.9
20260901055320 80 153 2.6 3.5 0.00 0.00 0.00 89 1019.9
20260901054316 81 86 1.7 4.3 0.00 0.00 0.00 88 1019.8
20260901053316 81 174 2.6 4.3 0.00 0.00 0.00 88 1019.9
20260901052310 81 159 1.7 4.3 0.00 0.00 0.00 88 1020.0
20260901051333 81 192 2.6 6.1 0.00 0.00 0.00 88 1020.0
20260901050310 81 205 2.6 5.2 0.00 0.00 0.00 87 1020.1
20260901045323 81 236 2.6 4.3 0.00 0.00 0.00 87 1020.1
20260901044346 81 183 2.6 6.1 0.00 0.00 0.00 87 1020.0
20260901043319 81 135 2.6 4.3 0.00 0.00 0.00 87 1019.9
20260901042320 81 159 2.6 4.3 0.00 0.00 0.00 87 1019.9
20260901041332 82 138 1.7 5.2 0.00 0.00 0.00 86 1019.9
20260901040311 82 144 2.6 6.1 0.00 0.00 0.00 86 1019.9
20260901035335 82 160 2.6 6.1 0.00 0.00 0.00 86 1019.8
20260901034329 82 130 2.6 4.3 0.00 0.00 0.00 85 1019.8
20260901033320 82 140 2.6 6.1 0.00 0.00 0.00 85 1019.8
20260901032313 82 152 3.5 7.0 0.00 0.00 0.00 84 1019.8
20260901031310 82 138 3.5 6.1 0.00 0.00 0.00 84 1019.8
20260901030333 83 119 3.5 6.1 0.00 0.00 0.00 82 1019.7
20260901025333 83 157 3.5 7.8 0.00 0.00 0.00 81 1019.7
20260901024347 84 147 3.5 8.7 0.00 0.00 0.00 80 1019.7
20260901023325 84 138 2.6 7.8 0.00 0.00 0.00 77 1019.7
20260901022322 84 141 2.6 7.0 0.00 0.00 0.00 73 1019.7
20260901021325 84 125 1.7 5.2 0.00 0.00 0.00 71 1019.6
20260901020318 84 158 2.6 3.5 0.00 0.00 0.00 71 1019.6
20260901015315 85 128 2.6 4.3 0.00 0.00 0.00 70 1019.6
20260901014315 85 148 1.7 4.3 0.00 0.00 0.00 71 1019.4
20260901013313 85 140 2.6 4.3 0.00 0.00 0.00 70 1019.4
20260901012309 85 147 0.9 2.6 0.00 0.00 0.00 70 1019.2
20260901011312 85 111 1.7 4.3 0.00 0.00 0.00 70 1019.1
20260901010327 85 78 0.9 3.5 0.00 0.00 0.00 69 1019.0
20260901005349 86 79 0.9 3.5 0.00 0.00 0.00 70 1018.9
20260901004331 86 70 0.9 2.6 0.00 0.00 0.00 70 1018.8
20260901003327 86 63 0.9 1.7 0.00 0.00 0.00 70 1018.8
20260901002349 86 149 1.7 3.5 0.00 0.00 0.00 70 1018.8
20260901001323 86 58 0.9 3.5 0.00 0.00 0.00 70 1018.7
20260901000321 87 146 2.6 3.5 0.00 0.00 0.00 69 1018.7
20260831235322 87 42 0.9 2.6 0.00 0.00 0.00 68 1018.6
20260831234319 88 69 0.9 2.6 0.00 0.00 0.00 67 1018.5
20260831233325 88 94 0.9 2.6 0.00 0.00 0.00 67 1018.6
20260831232322 89 127 1.7 3.5 0.00 0.00 0.00 68 1018.6
20260831231319 90 73 1.7 3.5 0.00 0.00 0.00 66 1018.6
20260831230320 90 85 1.7 5.2 0.00 0.00 0.00 64 1018.6
20260831225334 91 74 1.7 5.2 0.00 0.00 0.00 64 1018.4
20260831224314 92 90 1.7 5.2 0.00 0.00 0.00 63 1018.4
20260831223309 93 57 0.9 3.5 0.00 0.00 0.00 61 1018.4
20260831222329 93 49 1.7 3.5 0.00 0.00 0.00 61 1018.5
20260831221344 94 19 2.6 5.2 0.00 0.00 0.00 60 1018.5
20260831220325 95 46 2.6 5.2 0.00 0.00 0.00 59 1018.6
20260831215319 96 56 1.7 5.2 0.00 0.00 0.00 57 1018.7
20260831214316 98 182 1.7 2.6 0.00 0.00 0.00 56 1018.6
20260831213313 98 23 1.7 4.3 0.00 0.00 0.00 57 1018.6
20260831212337 97 44 2.6 4.3 0.00 0.00 0.00 56 1018.6
20260831211326 97 38 2.6 5.2 0.00 0.00 0.00 57 1018.7
20260831210327 97 63 1.7 6.1 0.00 0.00 0.00 56 1018.8
20260831205319 98 153 1.7 3.5 0.00 0.00 0.00 57 1018.7
20260831204312 98 336 1.7 4.3 0.00 0.00 0.00 55 1018.8
20260831203331 98 33 2.6 5.2 0.00 0.00 0.00 56 1019.0
20260831202330 98 16 2.6 4.3 0.00 0.00 0.00 55 1019.1
20260831201344 98 89 1.7 5.2 0.00 0.00 0.00 55 1019.2
20260831200343 98 63 1.7 6.1 0.00 0.00 0.00 57 1019.2
20260831195323 98 104 2.6 6.1 0.00 0.00 0.00 56 1019.3
20260831194315 98 104 2.6 6.1 0.00 0.00 0.00 59 1019.3
20260831193335 97 132 2.6 7.0 0.00 0.00 0.00 59 1019.4
20260831192328 97 167 2.6 7.0 0.00 0.00 0.00 58 1019.5
20260831191348 98 157 3.5 7.0 0.00 0.00 0.00 57 1019.6
20260831190316 97 58 4.3 7.0 0.00 0.00 0.00 61 1019.7
20260831185310 96 65 3.5 7.0 0.00 0.00 0.00 61 1019.8
20260831184310 96 88 2.6 6.1 0.00 0.00 0.00 60 1019.8
20260831183324 96 97 2.6 8.7 0.00 0.00 0.00 61 1019.9
20260831182323 96 163 2.6 7.0 0.00 0.00 0.00 61 1020.1
20260831181314 95 113 2.6 6.1 0.00 0.00 0.00 63 1020.1
20260831180333 96 301 2.6 5.2 0.00 0.00 0.00 62 1020.4
20260831175309 96 146 3.5 4.3 0.00 0.00 0.00 62 1020.4
20260831174321 96 173 1.7 4.3 0.00 0.00 0.00 63 1020.4
20260831173318 95 355 1.7 4.3 0.00 0.00 0.00 67 1020.5
20260831172335 95 327 2.6 5.2 0.00 0.00 0.00 63 1020.5
20260831171326 94 42 1.7 4.3 0.00 0.00 0.00 63 1020.6
20260831170345 94 328 0.9 5.2 0.00 0.00 0.00 66 1020.7
20260831165316 93 46 4.3 6.1 0.00 0.00 0.00 65 1020.8
20260831164315 92 278 1.7 3.5 0.00 0.00 0.00 67 1020.7
20260831163315 93 281 2.6 5.2 0.00 0.00 0.00 67 1020.8
20260831162326 93 66 1.7 4.3 0.00 0.00 0.00 66 1021.0
20260831161324 92 9 3.5 5.2 0.00 0.00 0.00 66 1021.1
20260831160314 91 328 2.6 4.3 0.00 0.00 0.00 68 1021.2
20260831155330 90 258 0.9 4.3 0.00 0.00 0.00 68 1021.2